Location: Dallas
(32.7833°N, 96.8000°W)
Time: 13:44:50
(UTC-06:00)

Envisat - Pass Details

Date: 10 December 2021
Orbit: 764 x 766 km, 98.2° (Epoch: 18 January)

Event Time Altitude Azimuth Distance (km) Brightness Sun altitude
Rises 04:13:51 0° 34° (NNE) 3,233 6.6 -38.0°
Reaches altitude 10° 04:17:00 10° 54° (NE) 2,302 5.9 -37.4°
Maximum altitude 04:20:13 17° 94° (E) 1,868 5.6 -36.7°
Drops below altitude 10° 04:23:25 10° 133° (SE) 2,292 6.0 -36.0°
Sets 04:26:31 0° 154° (SSE) 3,213 6.6 -35.4°
